User: anonymous   Login
Location: Czekan�w
(50.3488°N, 18.7344°E)
Time: 05:59:31
(UTC+00:00)
Language:

ADEOS - Orbit

View from above orbital plane
View from above orbital plane
View from above satellite
View from above satellite

Ground track
Ground track

The orbit data is extracted from the following two-line orbital elements,

1 24277U 96046A   20152.52403473 -.00000015 +00000-0 +12033-4 0  9995
2 24277 098.8720 127.5985 0002230 072.2421 287.9003 14.29450487240199
Epoch (UTC): 31 May 2020 12:34:36
Eccentricity: 0.0002230
inclination: 98.8720°
perigee height: 792 km
apogee height: 795 km
right ascension of ascending node: 127.5985°
argument of perigee: 72.2421°
revolutions per day: 14.29450487
mean anomaly at epoch: 287.9003°
orbit number at epoch: 24019

The dashed part of the orbit path shows where the satellite is in the earth's shadow,  

DLR